Temperature
25 26 26 27 27 28 28 27 27 28 28 27 27 27 27 26 25 25 24 23 22 22 21 20 19 19 18 18 18 18 17 17 17 17 17 17 16 16 16 16 16 16 16 16
25 26 27 28 27 27 27 27 27 27 28 27 27 26 27 26 26 25 24 23 22 21 20 19 18 18 18 18 18 18 17 17 17 17 17 17 16 16 16 16 16 16 16 15
26 27 27 27 26 26 26 27 27 27 27 27 26 26 27 26 25 24 23 23 22 21 20 19 18 18 18 17 17 17 17 17 17 17 16 16 16 16 16 16 16 16 15 15
26 27 26 26 26 26 26 27 27 27 26 27 27 26 27 26 26 25 24 23 22 21 20 19 18 18 18 17 17 17 17 17 17 17 16 16 16 16 16 16 16 15 15 15
26 26 26 26 26 27 27 27 27 27 26 26 27 26 27 26 26 25 24 23 22 21 20 19 18 18 18 17 17 17 17 17 17 16 16 16 16 16 16 15 15 15 15 15
26 27 26 26 27 27 27 26 26 26 26 25 26 26 26 26 26 25 24 22 21 21 20 19 18 18 17 17 17 17 16 16 16 16 16 16 16 16 16 15 15 15 15 15
25 26 26 27 26 26 26 25 25 25 25 25 26 25 25 26 25 25 24 22 21 20 19 19 18 18 17 17 17 17 16 16 16 16 16 16 16 16 15 15 15 15 15 15
25 25 26 26 26 26 26 26 25 24 25 26 26 25 26 25 24 23 23 22 21 20 19 18 18 17 17 17 17 16 16 16 16 16 16 16 16 15 15 15 15 15 15 15
25 25 26 26 26 26 26 26 27 26 25 25 25 25 24 24 23 23 22 22 21 20 19 18 18 17 17 17 16 16 16 16 16 16 16 16 15 15 15 15 15 15 15 14
25 24 26 26 26 26 26 26 26 25 24 24 25 25 25 24 23 23 22 22 20 19 18 18 17 17 17 16 16 16 16 16 15 15 15 15 15 15 15 15 15 14 14 14
25 24 25 25 25 25 25 25 25 25 25 24 24 24 24 24 23 23 22 21 20 19 18 18 17 17 16 16 16 16 15 15 15 15 15 15 15 15 14 14 14 14 14 14
24 24 24 25 25 25 25 25 25 23 23 24 24 23 23 23 23 22 21 20 19 19 18 18 17 17 16 16 16 15 15 15 15 15 15 15 15 14 14 14 14 14 14 14
23 23 22 23 24 24 24 25 25 24 23 23 23 23 22 22 22 21 20 19 18 18 17 17 16 16 16 16 15 15 15 15 15 15 15 14 14 14 14 14 14 14 14 13
22 22 22 23 24 24 24 24 24 24 23 23 23 23 22 22 21 20 18 18 17 17 17 16 16 15 15 15 15 15 15 14 14 14 14 14 14 14 14 13 13 13 13 13
21 22 22 23 24 24 23 23 24 23 23 23 23 23 22 21 20 19 18 17 17 16 16 16 15 15 15 14 14 14 14 14 14 14 14 14 14 14 13 13 13 13 13 13
20 21 22 22 23 23 23 23 23 23 23 23 23 22 21 20 19 18 17 17 16 16 15 15 15 15 14 14 14 14 14 14 14 14 14 14 14 13 13 13 13 13 13 13
20 20 20 21 22 22 21 22 22 22 22 22 21 21 20 19 19 18 16 16 16 15 15 15 14 14 14 14 14 14 14 13 13 13 13 13 13 13 13 13 12 12 12 12
18 19 20 21 21 20 21 21 21 21 20 20 20 20 19 18 17 16 16 15 15 15 15 14 14 14 13 13 13 13 13 13 13 13 13 13 13 13 12 12 12 12 12 12
18 18 20 20 20 20 20 19 19 19 19 19 18 18 18 17 16 16 15 14 14 14 14 14 13 13 13 13 13 13 13 13 13 13 13 12 12 12 12 12 12 12 12 12
18 18 19 19 19 19 18 18 18 19 18 18 17 17 17 16 18 17 14 13 13 13 13 13 13 13 13 13 13 13 13 13 13 13 12 12 12 12 12 12 11 11 11 11
18 18 18 18 18 18 16 17 18 18 17 16 16 16 16 16 16 14 13 13 13 13 13 12 13 12 12 12 12 12 13 12 12 12 12 12 12 12 11 11 11 11 11 11
17 18 17 18 17 16 15 16 16 15 14 14 14 14 14 14 13 13 12 12 12 12 12 12 12 12 12 12 12 12 12 12 12 12 12 12 11 11 11 11 11 11 11 11
16 16 16 16 15 14 13 14 13 13 13 13 13 13 13 13 13 12 12 12 12 12 11 11 11 11 11 11 11 11 11 11 11 11 11 11 11 11 11 11 11 11 11 11
15 15 15 15 14 14 13 13 12 12 12 12 12 12 12 12 12 12 12 11 11 11 11 11 11 11 11 11 11 11 11 11 11 11 11 11 11 11 11 11 11 11 11 11
13 14 14 14 14 13 13 12 12 12 12 12 12 12 11 11 11 11 11 11 11 11 10 10 10 10 10 10 10 10 10 11 10 10 10 11 11 11 11 11 11 11 11 11
13 13 13 13 13 12 12 11 11 11 11 11 11 11 11 11 11 11 11 10 10 10 10 10 10 10 10 10 10 10 10 10 10 10 10 10 10 10 10 11 11 11 10 10
Wind_Speed
10 11 13 12 12 10 9 9 9 7 5 7 9 8 7 5 6 7 6 7 7 7 7 7 7 8 8 8 9 9 9 8 7 6 6 6 5 5 4 4 4 5 5 5
10 14 13 10 10 10 10 11 9 7 5 7 8 9 7 6 7 7 7 7 7 6 6 7 7 7 8 9 9 10 10 9 8 6 5 4 4 4 4 4 4 5 5 5
16 9 9 10 11 12 12 11 10 8 6 9 9 10 8 5 6 6 7 7 7 6 7 7 7 8 8 9 9 9 9 9 8 7 6 5 4 4 4 4 4 4 5 6
13 11 10 12 13 13 12 10 10 10 10 9 9 10 7 6 5 6 7 7 7 6 7 7 8 8 8 8 8 8 9 9 8 8 6 7 5 5 4 3 3 4 5 5
11 11 11 14 13 12 10 8 10 11 12 12 11 11 7 6 7 6 6 7 7 7 7 8 8 7 7 6 7 7 8 8 8 7 7 7 6 5 4 3 3 4 4 4
13 10 11 12 11 11 9 8 9 11 11 13 11 10 9 6 6 6 5 6 6 6 7 8 7 7 6 5 6 7 7 7 7 8 8 7 6 5 5 4 4 4 4 4
13 12 11 11 11 11 11 9 8 9 10 10 6 8 7 2 3 4 4 5 6 7 7 7 8 8 7 6 6 6 8 7 6 7 7 6 6 6 6 6 5 5 4 4
11 11 11 11 12 10 13 13 11 9 9 8 6 8 3 0 1 2 3 3 6 7 7 7 7 7 7 7 6 5 6 7 6 6 6 5 5 5 4 5 5 5 4 4
8 8 8 10 10 11 12 13 12 11 12 11 8 6 4 2 2 3 3 4 6 7 7 7 7 7 7 7 6 5 5 5 6 6 5 5 5 4 4 4 5 4 4 4
6 8 8 8 9 11 12 10 9 11 10 11 9 8 6 4 5 4 4 5 5 6 6 6 6 6 6 6 6 5 5 5 5 6 5 5 5 5 4 4 3 3 4 4
8 8 8 9 11 11 10 12 10 10 10 10 9 5 1 1 3 3 3 4 5 5 6 6 6 6 5 5 5 5 5 5 5 5 5 4 4 4 4 4 4 3 4 5
8 7 9 10 8 8 11 12 12 11 10 10 10 5 2 1 2 1 2 3 4 4 4 5 5 5 5 5 4 5 5 5 5 5 5 4 4 4 3 3 3 3 3 4
5 6 8 9 10 10 10 11 12 11 10 10 11 5 3 2 2 2 2 3 3 4 4 4 5 5 4 4 4 4 4 4 4 5 5 4 4 3 3 3 3 3 4 4
5 7 10 11 7 7 10 11 11 12 11 11 11 8 3 1 0 1 1 1 2 4 4 5 5 4 4 4 4 4 4 4 4 5 5 4 4 4 3 3 3 3 3 4
4 9 10 11 9 8 10 11 12 13 14 13 10 8 5 3 2 1 2 2 2 3 3 4 4 4 4 3 3 4 4 4 4 5 5 4 4 4 3 3 3 3 3 4
3 6 8 10 9 8 9 11 11 12 12 11 9 6 2 1 1 3 3 3 3 3 3 3 4 4 4 4 4 4 4 4 4 4 4 4 4 4 3 3 3 3 3 3
4 6 8 9 8 9 10 8 9 8 7 8 8 5 1 1 2 3 3 3 2 3 2 2 3 3 3 4 4 4 4 4 4 4 4 4 4 4 3 3 3 3 3 3
6 8 6 6 7 9 2 2 1 3 2 3 3 1 1 1 1 2 3 2 1 1 2 2 2 2 3 3 3 3 3 3 4 4 4 4 4 4 4 3 3 3 3 3
7 7 6 6 7 6 3 2 2 3 2 1 2 2 1 2 2 4 4 3 2 1 1 1 1 2 3 3 3 3 3 3 3 3 3 4 4 4 4 3 3 3 3 3
5 7 7 7 7 6 1 4 4 5 4 2 2 2 1 2 3 1 2 2 2 2 2 1 1 2 2 3 3 3 3 3 2 2 2 3 4 4 3 3 3 2 3 3
4 5 7 7 7 2 5 5 3 5 1 4 2 1 1 2 1 2 1 2 2 3 3 2 2 2 2 2 2 2 1 1 1 1 1 2 2 3 3 3 3 3 3 3
2 3 4 5 6 2 6 3 1 3 4 3 2 1 1 2 3 3 3 3 3 3 4 3 3 2 2 2 2 1 1 1 0 1 1 1 2 3 2 3 3 3 4 4
1 3 2 1 1 4 4 4 4 3 2 3 3 2 2 2 3 3 3 3 3 3 3 2 2 3 2 1 1 0 1 1 1 0 0 0 1 2 2 3 3 3 3 4
1 2 2 1 2 3 4 5 5 5 5 4 4 3 3 3 3 3 3 2 2 3 2 2 3 3 2 1 1 0 0 1 1 0 0 1 1 1 2 3 3 3 3 3
4 2 2 2 0 1 3 5 5 5 6 6 5 5 4 3 2 3 3 3 2 2 2 2 2 1 1 1 1 1 1 0 1 1 1 1 1 2 2 2 3 3 3 3
3 3 2 1 1 1 2 4 4 4 4 5 5 4 3 3 2 3 3 3 2 2 2 2 2 1 1 1 1 1 1 0 1 1 1 2 2 2 3 3 3 2 2 1
Wind_Direction
199 217 221 220 230 252 256 254 248 245 243 247 250 256 259 244 235 233 221 212 206 199 187 178 179 180 180 182 184 185 186 181 182 182 185 185 188 187 185 185 183 191 199 194
206 223 227 230 233 242 248 248 246 246 241 253 256 259 259 247 238 235 225 217 211 198 183 175 173 178 181 182 187 187 187 185 188 186 191 192 189 187 188 189 182 197 201 202
223 228 218 227 228 234 241 248 251 254 254 245 255 256 241 228 230 226 225 221 215 204 191 181 181 184 184 186 189 189 186 185 187 181 181 177 177 185 184 189 190 197 200 199
235 234 228 227 227 234 241 244 254 251 253 252 248 267 242 224 225 222 223 220 215 203 190 182 182 187 189 189 186 183 181 181 181 181 184 183 187 190 192 195 189 189 194 197
227 222 224 228 227 230 246 250 251 253 256 263 251 261 252 216 228 222 222 223 214 198 187 183 183 181 179 179 178 173 173 176 177 180 182 188 196 197 191 190 183 196 189 193
241 228 226 233 233 230 236 239 244 244 247 250 248 255 260 231 238 231 219 217 207 193 184 181 177 169 162 162 169 170 171 174 178 185 188 193 197 199 195 196 195 197 191 190
229 222 217 223 224 213 220 231 237 236 234 247 237 250 260 262 252 249 231 211 197 184 178 173 170 165 162 162 163 167 168 171 176 185 192 197 202 202 204 205 200 206 201 194
227 221 207 211 223 222 219 230 242 254 253 260 245 247 256 67 228 237 235 205 182 176 175 173 171 169 168 168 168 169 174 179 182 189 195 202 206 209 209 207 209 207 211 201
234 229 198 205 220 226 221 229 247 262 265 262 247 243 238 210 212 213 207 190 180 175 176 175 171 172 171 171 173 177 179 184 190 193 194 198 198 210 210 204 211 215 209 197
250 240 217 201 212 221 235 235 236 244 251 256 252 249 251 222 223 212 203 188 178 174 177 176 175 173 173 174 174 178 179 188 191 191 195 194 195 201 204 210 210 215 204 198
246 240 225 207 216 221 216 221 234 246 252 257 259 258 325 273 238 214 198 182 175 173 175 178 178 171 167 166 167 175 181 186 188 187 190 192 193 196 202 209 210 211 206 196
229 243 240 228 222 229 225 231 232 239 247 253 263 263 53 5 339 239 168 161 164 163 168 171 170 163 163 164 170 175 178 184 187 183 182 182 183 187 196 198 201 202 202 204
225 234 235 224 209 211 223 228 233 240 250 252 254 245 112 56 52 65 123 148 159 159 157 160 161 161 166 167 172 178 181 183 186 178 171 169 173 180 189 195 197 197 198 204
250 242 246 245 248 233 233 235 235 237 244 250 255 261 254 287 16 58 127 166 167 162 162 167 166 167 164 164 173 182 186 180 179 175 173 175 178 183 191 199 203 208 207 209
247 245 249 260 268 252 246 243 238 237 246 255 262 262 266 268 261 200 167 159 159 161 171 176 173 169 164 162 171 179 183 184 184 183 184 183 178 182 188 195 204 214 218 216
246 248 250 252 251 246 248 243 239 241 245 249 256 258 296 295 185 150 146 152 164 169 175 182 181 173 174 177 182 181 179 181 189 193 192 187 183 186 188 193 201 211 215 223
236 239 246 246 242 246 247 251 242 238 246 254 257 274 228 223 195 160 149 154 160 177 179 181 185 183 182 188 191 189 184 184 189 194 192 188 188 192 196 199 201 208 215 223
238 243 239 240 232 234 209 49 287 247 274 309 304 301 238 225 153 143 132 131 121 139 171 177 187 194 188 185 186 184 181 185 188 189 189 189 193 194 197 205 209 216 223 229
226 232 233 229 231 236 159 53 296 243 240 340 318 299 214 171 159 122 67 52 61 97 106 150 173 180 174 167 167 177 184 180 179 182 192 194 198 199 204 208 211 223 232 240
197 224 235 233 238 241 39 358 314 248 222 39 339 295 223 192 220 151 48 37 41 61 74 85 119 138 153 164 173 184 183 178 183 188 199 192 195 202 210 216 222 230 234 240
201 214 232 239 238 227 22 339 285 231 333 3 341 314 244 254 332 93 90 66 60 58 64 77 99 107 125 150 161 168 162 171 187 188 186 190 200 210 213 221 230 237 240 244
254 237 225 235 232 227 19 7 348 354 354 0 357 1 60 61 65 88 91 75 63 49 50 66 90 83 86 115 134 134 100 353 307 186 173 192 222 236 219 225 237 245 249 242
295 321 301 300 70 68 55 40 33 16 14 20 16 30 85 79 68 76 78 67 55 43 46 56 82 83 66 68 99 86 345 319 298 165 196 238 256 255 248 243 242 244 243 253
307 339 273 248 120 85 63 39 32 32 35 32 35 41 64 73 69 67 66 62 53 41 57 71 78 77 56 28 14 23 344 313 302 321 277 253 249 263 262 265 265 267 270 272
309 300 263 242 351 63 41 26 27 39 43 43 44 45 46 55 63 60 46 35 29 34 58 68 76 70 69 50 25 46 59 48 360 338 314 297 280 286 284 281 292 283 294 296
299 291 269 282 8 340 3 9 12 32 38 35 39 38 34 36 41 39 31 22 21 27 44 44 36 50 53 55 56 60 71 52 4 338 315 305 301 297 286 289 295 321 273 224
Height
1490 1489 1485 1481 1481 1480 1480 1481 1483 1480 1479 1482 1483 1482 1482 1485 1486 1488 1490 1492 1494 1496 1498 1499 1501 1502 1504 1505 1506 1508 1510 1511 1513 1515 1517 1519 1521 1522 1523 1524 1525 1526 1527 1528
1487 1483 1478 1478 1480 1482 1481 1483 1481 1479 1478 1481 1481 1481 1479 1481 1483 1485 1487 1489 1491 1493 1495 1497 1498 1499 1501 1503 1504 1506 1507 1509 1511 1513 1515 1517 1519 1520 1522 1523 1523 1524 1525 1526
1480 1474 1476 1479 1480 1482 1481 1480 1479 1479 1478 1477 1480 1480 1476 1477 1480 1482 1485 1486 1488 1490 1492 1494 1496 1498 1499 1501 1502 1503 1505 1507 1509 1511 1513 1515 1517 1518 1520 1521 1522 1522 1523 1524
1474 1472 1475 1477 1477 1478 1479 1474 1476 1477 1480 1477 1476 1482 1473 1472 1475 1478 1481 1483 1485 1487 1490 1492 1494 1496 1497 1499 1500 1501 1503 1505 1507 1509 1511 1513 1514 1516 1517 1518 1520 1520 1521 1523
1471 1470 1473 1474 1472 1473 1473 1471 1474 1475 1476 1477 1473 1478 1471 1468 1472 1474 1478 1480 1482 1485 1487 1490 1492 1494 1495 1497 1498 1500 1501 1503 1505 1507 1509 1511 1512 1514 1515 1516 1517 1518 1520 1520
1466 1467 1469 1469 1469 1470 1471 1473 1474 1473 1473 1483 1472 1476 1473 1465 1468 1470 1474 1478 1480 1483 1485 1488 1490 1492 1494 1495 1496 1498 1500 1501 1503 1505 1507 1509 1510 1511 1513 1514 1515 1516 1517 1518
1467 1464 1465 1467 1468 1469 1471 1477 1483 1482 1480 1476 1465 1473 1470 1464 1466 1469 1472 1476 1478 1481 1483 1486 1488 1490 1492 1494 1495 1497 1498 1500 1502 1504 1505 1507 1508 1509 1510 1511 1512 1513 1515 1516
1466 1467 1461 1463 1464 1466 1467 1470 1480 1485 1480 1470 1466 1470 1464 1464 1468 1471 1473 1474 1477 1479 1482 1484 1487 1489 1490 1492 1493 1495 1497 1498 1500 1502 1503 1505 1506 1508 1509 1509 1510 1511 1512 1513
1460 1462 1456 1459 1461 1461 1465 1464 1460 1468 1467 1472 1466 1462 1463 1464 1467 1470 1471 1473 1475 1478 1481 1483 1486 1487 1489 1490 1492 1493 1495 1496 1498 1500 1501 1502 1504 1505 1506 1507 1508 1509 1509 1510
1457 1463 1456 1458 1460 1460 1459 1459 1464 1468 1478 1478 1469 1466 1463 1463 1465 1467 1469 1472 1475 1478 1480 1482 1484 1486 1488 1489 1490 1492 1493 1494 1496 1498 1499 1501 1502 1503 1504 1505 1505 1506 1506 1507
1459 1462 1459 1457 1459 1458 1460 1462 1462 1462 1463 1473 1476 1469 1458 1460 1462 1465 1468 1471 1474 1476 1479 1481 1483 1485 1486 1488 1489 1490 1491 1493 1494 1495 1497 1498 1499 1500 1501 1502 1503 1503 1504 1504
1459 1459 1460 1455 1452 1453 1455 1457 1460 1470 1468 1464 1466 1470 1460 1461 1463 1466 1468 1472 1474 1476 1478 1480 1482 1483 1485 1486 1488 1489 1490 1491 1492 1494 1495 1496 1497 1498 1499 1500 1500 1501 1501 1502
1460 1462 1466 1461 1459 1456 1455 1454 1455 1458 1463 1464 1468 1468 1461 1462 1465 1468 1470 1472 1474 1475 1477 1479 1481 1482 1484 1485 1486 1488 1489 1489 1490 1492 1492 1494 1495 1496 1496 1497 1498 1498 1499 1499
1463 1460 1461 1462 1456 1452 1455 1454 1453 1457 1461 1461 1460 1460 1460 1462 1465 1468 1471 1472 1473 1475 1476 1478 1480 1481 1482 1483 1485 1486 1487 1488 1489 1489 1490 1491 1492 1493 1494 1495 1495 1496 1496 1497
1461 1460 1456 1452 1450 1451 1452 1453 1453 1455 1454 1457 1456 1457 1459 1462 1465 1468 1470 1471 1473 1474 1475 1477 1478 1480 1481 1482 1483 1484 1486 1486 1487 1488 1489 1489 1490 1491 1492 1492 1493 1493 1494 1494
1462 1461 1457 1456 1451 1451 1453 1451 1451 1452 1452 1453 1455 1458 1460 1463 1466 1468 1469 1471 1472 1474 1475 1476 1477 1478 1479 1480 1481 1482 1483 1484 1485 1486 1486 1487 1488 1488 1489 1490 1490 1490 1491 1492
1461 1462 1460 1457 1451 1452 1456 1451 1450 1451 1452 1453 1457 1460 1462 1464 1465 1467 1469 1470 1472 1473 1474 1475 1476 1476 1477 1478 1479 1481 1481 1482 1483 1483 1484 1485 1485 1486 1487 1488 1488 1488 1488 1489
1463 1462 1459 1456 1457 1464 1456 1453 1453 1455 1457 1458 1459 1462 1464 1466 1467 1468 1469 1471 1471 1472 1473 1474 1475 1475 1476 1476 1477 1479 1480 1480 1481 1482 1482 1483 1483 1484 1485 1485 1485 1485 1486 1486
1462 1461 1457 1456 1458 1456 1456 1457 1458 1459 1460 1462 1463 1464 1465 1467 1467 1469 1470 1471 1471 1472 1472 1472 1473 1474 1474 1475 1475 1477 1478 1479 1480 1480 1480 1481 1482 1482 1483 1483 1483 1483 1484 1484
1460 1459 1457 1455 1460 1461 1461 1461 1460 1461 1462 1464 1465 1465 1466 1466 1464 1467 1470 1471 1471 1471 1471 1471 1472 1472 1473 1473 1474 1476 1477 1478 1478 1479 1479 1479 1480 1480 1481 1481 1481 1481 1481 1481
1459 1459 1458 1457 1460 1459 1465 1464 1461 1464 1465 1467 1466 1467 1467 1467 1467 1470 1470 1471 1471 1471 1471 1471 1471 1471 1472 1472 1473 1474 1476 1476 1477 1477 1478 1478 1478 1479 1479 1479 1479 1479 1479 1479
1461 1458 1459 1458 1461 1467 1469 1466 1467 1470 1470 1469 1468 1468 1469 1469 1469 1470 1470 1471 1471 1471 1471 1471 1471 1471 1471 1471 1472 1473 1474 1475 1475 1476 1476 1477 1477 1478 1478 1478 1477 1477 1477 1477
1465 1466 1463 1464 1470 1473 1472 1472 1472 1472 1471 1470 1470 1469 1469 1469 1470 1470 1471 1471 1471 1471 1471 1471 1471 1471 1471 1471 1472 1472 1473 1474 1474 1475 1475 1475 1476 1476 1476 1476 1476 1475 1475 1475
1468 1469 1468 1469 1470 1473 1474 1473 1473 1472 1471 1471 1471 1470 1470 1470 1471 1471 1471 1471 1471 1471 1471 1471 1471 1471 1471 1471 1472 1472 1472 1473 1473 1474 1474 1474 1474 1475 1475 1474 1475 1474 1473 1473
1472 1471 1470 1471 1473 1474 1474 1474 1474 1473 1473 1472 1472 1472 1472 1472 1471 1471 1471 1471 1471 1471 1471 1471 1471 1471 1471 1471 1471 1472 1472 1472 1472 1472 1473 1473 1473 1473 1473 1473 1472 1472 1471 1471
1474 1473 1472 1471 1474 1475 1476 1476 1475 1474 1474 1474 1473 1473 1473 1473 1472 1472 1471 1472 1472 1471 1471 1471 1471 1471 1471 1471 1472 1472 1472 1472 1471 1472 1472 1472 1472 1472 1471 1471 1470 1469 1469 1468